User: anonymous   Login
Location: Unspecified
(0.0000°N, 0.0000°E)
Time: 09:30:47
(UTC+00:00)
Language:

NNS O-31 - Orbit

View from above orbital plane
View from above orbital plane
View from above satellite
View from above satellite

Ground track
Ground track

The orbit data is extracted from the following two-line orbital elements,

1 19420U 88074B   18267.33500559 +.00000034 +00000-0 +42977-4 0  9997
2 19420 089.9952 018.4122 0094283 197.9499 215.5577 13.42211309472823
Epoch (UTC): 24 September 2018 08:02:24
Eccentricity: 0.0094283
inclination: 89.9952°
perigee height: 1030 km
apogee height: 1171 km
right ascension of ascending node: 18.4122°
argument of perigee: 197.9499°
revolutions per day: 13.42211309
mean anomaly at epoch: 215.5577°
orbit number at epoch: 47282

The dashed part of the orbit path shows where the satellite is in the earth's shadow,  

DLR